Find Thor II

NORAD ID: 24808 Int'l Des: 1997-025 Owner: TNOR Country: N operational
HEOCIRCULAR

当前视图

正在加载3D地球...

关于 Thor II

正在加载描述...

即将过境

Passes for default location (London). Set your location on the main map for personalized predictions.

高度历史

Loading altitude history...

两行轨道根数

1 24808U 97025A 26150.54028169 -.00000226 00000-0 00000+0 0 9994
2 24808 12.0014 32.8207 0004543 327.4027 252.3968 0.98975052 45903
Epoch: May 30, 2026 • Age: 5 hours

当前状态

高度 36139.7 km
速度 3.06 km/s
星下点 -10.93°S, 169.55°E
发射日期 May 20, 1997
运行时间 29 years
类型 other

技术详情

分类 Payload
质量 924.00 kg
干质量 750.00 kg
总质量 1467.00 kg
长度 7.80 m
直径 2.20 m
跨度 7.80 m
形状 Cyl
制造商 HSES
平台类型 HS-376HP
阶段状态 In Orbit
所有者/国家 TNOR/N

Most Searched